TimeCDT,TemperatureF,Dew PointF,Humidity,Sea Level PressureIn,VisibilityMPH,Wind Direction,Wind SpeedMPH,Gust SpeedMPH,PrecipitationIn,Events,Conditions,WindDirDegrees,DateUTC
12:14 AM,44.6,26.6,49,29.87,7.0,Calm,Calm,-,N/A,,Clear,0,2012-10-03 05:14:00
12:34 AM,44.6,26.6,49,29.87,7.0,Calm,Calm,-,N/A,,Clear,0,2012-10-03 05:34:00
12:54 AM,42.8,26.6,53,29.87,10.0,Calm,Calm,-,N/A,,Clear,0,2012-10-03 05:54:00
1:14 AM,42.8,26.6,53,29.87,10.0,Calm,Calm,-,N/A,,Clear,0,2012-10-03 06:14:00
1:34 AM,42.8,26.6,53,29.87,10.0,Calm,Calm,-,N/A,,Clear,0,2012-10-03 06:34:00
1:54 AM,42.8,28.4,57,29.87,10.0,Calm,Calm,-,N/A,,Clear,0,2012-10-03 06:54:00
2:15 AM,41.0,28.4,61,29.87,10.0,Calm,Calm,-,N/A,,Clear,0,2012-10-03 07:15:00
2:34 AM,42.8,28.4,57,29.87,10.0,Calm,Calm,-,N/A,,Clear,0,2012-10-03 07:34:00
2:54 AM,41.0,28.4,61,29.87,10.0,Calm,Calm,-,N/A,,Clear,0,2012-10-03 07:54:00
3:14 AM,41.0,28.4,61,29.87,10.0,Calm,Calm,-,N/A,,Clear,0,2012-10-03 08:14:00
3:34 AM,41.0,28.4,61,29.87,10.0,Calm,Calm,-,N/A,,Clear,0,2012-10-03 08:34:00
3:55 AM,39.2,30.2,70,29.87,10.0,Calm,Calm,-,N/A,,Clear,0,2012-10-03 08:55:00
4:14 AM,39.2,30.2,70,29.87,10.0,Calm,Calm,-,N/A,,Clear,0,2012-10-03 09:14:00
4:34 AM,39.2,30.2,70,29.87,10.0,Calm,Calm,-,N/A,,Clear,0,2012-10-03 09:34:00
4:55 AM,41.0,30.2,65,29.87,10.0,Calm,Calm,-,N/A,,Clear,0,2012-10-03 09:55:00
5:14 AM,41.0,30.2,65,29.87,10.0,Calm,Calm,-,N/A,,Clear,0,2012-10-03 10:14:00
5:34 AM,39.2,30.2,70,29.88,10.0,Calm,Calm,-,N/A,,Clear,0,2012-10-03 10:34:00
5:54 AM,39.2,32.0,75,29.88,10.0,Calm,Calm,-,N/A,,Clear,0,2012-10-03 10:54:00
6:14 AM,37.4,32.0,81,29.88,10.0,Calm,Calm,-,N/A,,Clear,0,2012-10-03 11:14:00
6:34 AM,37.4,30.2,75,29.88,10.0,Calm,Calm,-,N/A,,Clear,0,2012-10-03 11:34:00
6:54 AM,37.4,30.2,75,29.88,10.0,Calm,Calm,-,N/A,,Clear,0,2012-10-03 11:54:00
7:14 AM,37.4,30.2,75,29.88,10.0,Calm,Calm,-,N/A,,Clear,0,2012-10-03 12:14:00
7:35 AM,35.6,30.2,81,29.88,10.0,Calm,Calm,-,N/A,,Clear,0,2012-10-03 12:35:00
7:54 AM,35.6,30.2,81,29.88,7.0,Calm,Calm,-,N/A,,Clear,0,2012-10-03 12:54:00
8:14 AM,39.2,32.0,75,29.88,7.0,Calm,Calm,-,N/A,,Clear,0,2012-10-03 13:14:00
8:35 AM,44.6,32.0,61,29.88,7.0,Calm,Calm,-,N/A,,Clear,0,2012-10-03 13:35:00
8:54 AM,46.4,32.0,57,29.87,10.0,Calm,Calm,-,N/A,,Clear,0,2012-10-03 13:54:00
9:14 AM,50.0,32.0,50,29.87,10.0,Calm,Calm,-,N/A,,Clear,0,2012-10-03 14:14:00
9:35 AM,53.6,32.0,44,29.87,10.0,South,4.6,-,N/A,,Clear,170,2012-10-03 14:35:00
9:54 AM,59.0,32.0,36,29.86,10.0,South,8.1,-,N/A,,Clear,170,2012-10-03 14:54:00
10:14 AM,60.8,32.0,34,29.86,10.0,South,9.2,-,N/A,,Clear,180,2012-10-03 15:14:00
10:35 AM,64.4,32.0,30,29.86,10.0,South,10.4,-,N/A,,Clear,170,2012-10-03 15:35:00
10:54 AM,64.4,32.0,30,29.85,10.0,South,10.4,-,N/A,,Clear,170,2012-10-03 15:54:00
11:14 AM,68.0,32.0,26,29.85,10.0,South,12.7,16.1,N/A,,Clear,170,2012-10-03 16:14:00
11:34 AM,69.8,30.2,23,29.83,10.0,South,11.5,-,N/A,,Clear,170,2012-10-03 16:34:00
11:54 AM,71.6,30.2,22,29.82,10.0,South,16.1,20.7,N/A,,Clear,170,2012-10-03 16:54:00
12:14 PM,73.4,30.2,20,29.81,10.0,SSE,16.1,24.2,N/A,,Clear,160,2012-10-03 17:14:00
12:34 PM,73.4,30.2,20,29.80,10.0,South,17.3,23.0,N/A,,Clear,170,2012-10-03 17:34:00
12:54 PM,77.0,28.4,17,29.80,10.0,South,18.4,-,N/A,,Clear,170,2012-10-03 17:54:00
1:14 PM,77.0,28.4,17,29.80,10.0,South,19.6,23.0,N/A,,Clear,180,2012-10-03 18:14:00
1:34 PM,77.0,28.4,17,29.78,10.0,South,16.1,25.3,N/A,,Clear,170,2012-10-03 18:34:00
1:54 PM,77.0,26.6,16,29.78,10.0,SSE,17.3,26.5,N/A,,Clear,160,2012-10-03 18:54:00
2:14 PM,77.0,26.6,16,29.77,10.0,South,18.4,24.2,N/A,,Clear,170,2012-10-03 19:14:00
2:34 PM,77.0,26.6,16,29.77,10.0,South,20.7,27.6,N/A,,Clear,180,2012-10-03 19:34:00
2:54 PM,78.8,26.6,15,29.76,10.0,South,17.3,25.3,N/A,,Clear,180,2012-10-03 19:54:00
3:14 PM,78.8,26.6,15,29.75,10.0,South,20.7,26.5,N/A,,Clear,180,2012-10-03 20:14:00
3:35 PM,78.8,26.6,15,29.74,10.0,South,19.6,28.8,N/A,,Clear,180,2012-10-03 20:35:00
3:54 PM,77.0,26.6,16,29.74,10.0,South,20.7,27.6,N/A,,Clear,170,2012-10-03 20:54:00
4:14 PM,77.0,26.6,16,29.73,10.0,South,16.1,24.2,N/A,,Clear,170,2012-10-03 21:14:00
4:34 PM,78.8,26.6,15,29.73,10.0,SSE,23.0,27.6,N/A,,Clear,160,2012-10-03 21:34:00
4:54 PM,77.0,26.6,16,29.74,10.0,South,15.0,26.5,N/A,,Clear,170,2012-10-03 21:54:00
5:14 PM,78.8,24.8,14,29.75,10.0,South,18.4,27.6,N/A,,Clear,170,2012-10-03 22:14:00
5:34 PM,77.0,23.0,13,29.75,10.0,South,18.4,24.2,N/A,,Clear,170,2012-10-03 22:34:00
5:54 PM,77.0,23.0,13,29.76,10.0,South,18.4,28.8,N/A,,Clear,180,2012-10-03 22:54:00
6:14 PM,77.0,26.6,16,29.76,10.0,South,13.8,25.3,N/A,,Clear,170,2012-10-03 23:14:00
6:34 PM,73.4,26.6,18,29.76,10.0,SSE,12.7,21.9,N/A,,Clear,160,2012-10-03 23:34:00
6:54 PM,71.6,28.4,20,29.76,10.0,SSE,10.4,-,N/A,,Clear,160,2012-10-03 23:54:00
7:14 PM,69.8,28.4,21,29.76,10.0,SSE,9.2,-,N/A,,Clear,160,2012-10-04 00:14:00
7:34 PM,69.8,30.2,23,29.75,10.0,SSE,9.2,-,N/A,,Clear,160,2012-10-04 00:34:00
7:54 PM,68.0,30.2,24,29.76,10.0,SSE,9.2,-,N/A,,Clear,160,2012-10-04 00:54:00
8:14 PM,68.0,30.2,24,29.76,10.0,SSE,8.1,-,N/A,,Clear,160,2012-10-04 01:14:00
8:34 PM,66.2,30.2,26,29.77,10.0,SSE,9.2,-,N/A,,Clear,150,2012-10-04 01:34:00
8:54 PM,66.2,32.0,28,29.77,10.0,SSE,10.4,-,N/A,,Clear,160,2012-10-04 01:54:00
9:14 PM,64.4,30.2,28,29.78,10.0,South,10.4,-,N/A,,Clear,180,2012-10-04 02:14:00
9:34 PM,64.4,30.2,28,29.78,10.0,South,15.0,-,N/A,,Clear,180,2012-10-04 02:34:00
9:54 PM,62.6,30.2,30,29.79,10.0,South,15.0,19.6,N/A,,Clear,190,2012-10-04 02:54:00
10:14 PM,60.8,35.6,39,29.81,7.0,West,16.1,24.2,N/A,,Clear,270,2012-10-04 03:14:00
10:34 PM,55.4,35.6,47,29.83,5.0,West,17.3,24.2,N/A,,Haze,280,2012-10-04 03:34:00
10:54 PM,53.6,35.6,51,29.84,7.0,West,16.1,23.0,N/A,,Clear,270,2012-10-04 03:54:00
11:14 PM,51.8,37.4,58,29.86,10.0,West,17.3,25.3,N/A,,Clear,270,2012-10-04 04:14:00
11:34 PM,50.0,37.4,62,29.87,10.0,West,16.1,19.6,N/A,,Clear,280,2012-10-04 04:34:00
11:54 PM,50.0,37.4,62,29.89,10.0,West,20.7,27.6,N/A,,Clear,280,2012-10-04 04:54:00